Regional Weather Roundup
Issued by NWS

Home | Current Version | Previous Version | Text Only | Print | Product List | Glossary Off
Versions: 1 2 3 4 5 6 7 8 9 10 11 12 13 14 15 16 17 18 19 20 21 22 23 24 25 26 27 28 29 30 31 32 33 34 35 36 37 38 39 40 41 42 43 44 45 46 47 48 49 50

000
ASUS45 KTFX 220710
RWRMT
MONTANA REGIONAL WEATHER ROUNDUP
NATIONAL WEATHER SERVICE GREAT FALLS MT
100 AM MDT SUN APR 22 2018

NOTE: "FAIR" INDICATES FEW OR NO CLOUDS BELOW 12000 FEET WITH NO
SIGNIFICANT WEATHER AND/OR OBSTRUCTIONS TO VISIBILITY.

MTZ001>007-043-220800-
WEST OF THE DIVIDE

CITY           SKY/WX    TMP DP  RH WIND       PRES   REMARKS
KALISPELL      FAIR      42  25  50 SW3       30.16S
MISSOULA       FAIR      40  23  50 N10       30.20S
BUTTE          FAIR      40  23  50 CALM      30.17R
MULLAN PASS    FAIR      30  15  53 SW7       30.17S WCI  23
ANACONDA         N/A     36  19  51 N6        30.17S WCI  31
DEER LODGE       N/A     39  21  48 N3        30.19R
HAMILTON         N/A     43  25  49 MISG      30.19S
PLAINS           N/A     37  26  65 CALM      30.20R
RONAN            N/A     41  25  52 S6        30.21S
$$

MTZ008-052>055-220800-
SOUTHWEST MONTANA

CITY           SKY/WX    TMP DP  RH WIND       PRES   REMARKS
BOZEMAN        FAIR      40  27  59 NW9       30.13S
DILLON         FAIR      42  28  57 E14       30.13R
ENNIS          PTCLDY    37  27  65 CALM      30.18R
W YELLOWSTONE  MOCLDY    37  28  70 CALM      30.15R
THREE FORKS      N/A     42  27  55 CALM      30.13R
TWIN BRIDGES     N/A     45  26  47 NW12      30.09R
$$

MTZ009-010-012-014-046-048-049-054-220800-
EAST SLOPES AND CENTRAL MONTANA

CITY           SKY/WX    TMP DP  RH WIND       PRES   REMARKS
CUT BANK       FAIR      40  22  48 W9        30.09R
GREAT FALLS    FAIR      41  24  51 CALM      30.13R
HELENA         FAIR      48  22  35 W8        30.15R
AUGUSTA        MOCLDY    40  19  43 CALM      30.12S
BOWMANS CRNR   MOCLDY    40  20  44 W8        30.11R
CHOTEAU          N/A     41  19  42 CALM      30.14R
FAIRFIELD      MOCLDY    41  21  44 CALM      30.12R
POWER          MOCLDY    40  23  51 W7        30.11S
RAYNESFORD     CLOUDY    41  22  46 CALM      30.14R
ULM            CLOUDY    41  28  57 E5        30.13R
WHITE SULPHUR    N/A     37  25  60 N6        30.13S
$$

MTZ011-013-016-021-045-047-050-051-220800-
NORTH CENTRAL MONTANA

CITY           SKY/WX    TMP DP  RH WIND       PRES   REMARKS
HAVRE          FAIR      39  27  62 W8        30.08R
LEWISTOWN      FAIR      38  22  52 SW8       30.14R
N BAR RANCH    MOCLDY    41  19  42 NW14      30.15S
CHINOOK          N/A     43  28  56 SW8       30.09R
GEYSER         MOCLDY    40  22  49 SW10      30.13R
GRASS RANGE    MOCLDY    44  19  36 CALM      30.10R
STANFORD       MOCLDY    36  23  59 CALM      30.14R
$$

MTZ017>020-022>027-061-062-220800-
NORTHEAST MONTANA

CITY           SKY/WX    TMP DP  RH WIND       PRES   REMARKS
GLASGOW        FAIR      47  25  42 NW7       30.06R
GLENDIVE       FAIR      45  32  60 N12       30.07R
JORDAN           N/A     41  29  62 S6        30.09R
MALTA          CLEAR     43  30  61 W10       30.06R
SIDNEY         FAIR      45  37  73 NW8       30.06R
WOLF POINT     CLOUDY    54  25  32 NW16      30.07R
PLENTYWOOD       N/A     52  25  35 NW10      30.03R
POPLAR           N/A     50  27  40 W8        30.07R
SCOBEY           N/A     48  22  36 W6        30.02R
$$

MTZ028>42-056>058-220800-
SOUTHCENTRAL AND SOUTHEAST MONTANA

CITY           SKY/WX    TMP DP  RH WIND       PRES   REMARKS
BAKER          FAIR      41  38  89 MISG      30.10R
BILLINGS       FAIR      49  29  46 N7        30.12R
MILES CITY     FAIR      51  29  42 N10       30.08R
BIG TIMBER     CLEAR     46  28  49 SE6       30.13R
EKALAKA          N/A     45  36  70 SE9       30.02R
FORSYTH          N/A     52  28  40 N7        30.09R
HARLOWTON      MOCLDY    43  21  41 N20       30.11R
LAUREL           N/A     50  28  43 N13       30.13R
$$

REGIONAL REPORTS...DAKOTAS

CITY           SKY/WX    TMP DP  RH WIND       PRES   REMARKS
WILLISTON      FAIR      48  39  71 SW3       30.05R
MINOT          FAIR      46  37  71 S25G38    30.05S
DICKINSON      FAIR      40  36  86 S16G26    30.05R
BEACH          FAIR      41  39  93 SW6       30.10F
CROSBY         FAIR      45  41  87 SW7       30.02R
TIOGA          FAIR      43  45 100 S13       30.05S
BISMARCK       FAIR      44  35  70 S12       30.17F
GRAND FORKS    FAIR      41  40  96 S10       30.23R
FARGO          FAIR      43  36  76 S12       30.27S
BUFFALO SD       N/A     40  35  83 S13G23    30.01
RAPID CITY     FAIR      37  34  89 SE14      30.12F WCI  28
$$

REGIONAL REPORTS...WYOMING/IDAHO/WASHINGTON

CITY           SKY/WX    TMP DP  RH WIND       PRES   REMARKS
GILLETTE       FAIR      42  36  79 S13       30.07S
SHERIDAN       FAIR      41  35  79 MISG      30.06R
BUFFALO WY     FAIR      46  33  60 W7        30.07S
CODY           FAIR      55  27  34 S7        30.09R
YELLOWSTONE LA   N/A     27  24  89 CALM      30.26R
IDAHO FALLS    FAIR      53  31  42 S18       30.12S
SALMON         FAIR      45  32  60 NE3       30.15R
BOISE          FAIR      49  33  54 W5        30.12R
SPOKANE        FAIR      40  27  59 SW14      30.21S
$$

REGIONAL REPORTS...ALBERTA

CITY           SKY/WX    TMP DP  RH WIND       PRES   REMARKS
CALGARY        CLEAR     37  19  48 NW3       30.01S
CARDSTON         N/A     41  23  48 S3          N/A
EDMONTON       PTCLDY    41  23  48 W14G22    29.91R
FORT MCMURRAY  CLOUDY    41  39  93 W5        29.69F
HIGH LEVEL     MIX PCPN  36  34  93 N9        29.86  WCI  29
LETHBRIDGE     PTCLDY    41  27  56 W12G17    30.06R
LLOYDMINSTER   MOCLDY    39  37  93 W21G28    29.77R WCI  29
MEDICINE HAT   CLEAR     41  28  60 W10       30.02S
MILK RIVER       N/A     39  27  60 W7          N/A
ONEFOUR          N/A     41  27  56 NW12        N/A
PEACE RIVER    CLOUDY    39  30  70 W17G26    29.85R WCI  30
PINCHER CREEK  MOCLDY    39  25  56 SW15      30.07S WCI  31
WATERTON GATE    N/A     41  19  42 SW9         N/A
$$

REGIONAL REPORTS...SASKATCHEWAN

CITY           SKY/WX    TMP DP  RH WIND       PRES   REMARKS
CORONACH         N/A     45  23  42 W9          N/A
CYPRESS HILLS    N/A     39  18  41 W14G23      N/A  WCI  31
ESTEVAN        MOCLDY    46  37  71 SW8       30.00R
MOOSE JAW        N/A     46  34  61 W25G33      N/A
PRINCE ALBERT  PTCLDY    39  37  93 SW14      29.57R WCI  31
REGINA         PTCLDY    45  36  70 W17G26    29.93R
ROCKGLEN         N/A     43  23  45 W13         N/A
SASKATOON      MOCLDY    43  37  81 W31G41    29.75R
SWIFT CURRENT  CLEAR     43  30  61 W20G28    29.95R
VAL MARIE        N/A     41  27  56 W15         N/A
$$



USA.gov is the U.S. government's official web portal to all federal, state and local government web resources and services.